[[{"header":{"parameterUnit":"m.s-1","parameterCategory":2,"la1":30.2992,"la2":30.254,"lo1":-89.0895,"lo2":-89.0443,"dy":0.0025,"dx":0.0025,"nx":19,"ny":19,"refTime":"2026-04-07T09:00:00:Z","depth":"0","parameterNumber":2,"parameterNumberName":"U-component_of_CURRENTS"},"data":[0,0,0,0.1117,0.1115,0.1034,0.1034,0.098,0.098,0,0,0,0,0,0,0,0,0,0,0,0.117,0.117,0.1117,0.1115,0.1034,0.1034,0.098,0.098,0,0,0,0,0,0,0,0,0,0,0,0.117,0.117,0.117,0.1115,0.1034,0.1034,0.0981,0.1031,0,0,0,0,0,0,0,0,0,0,0.1104,0.1127,0.117,0.117,0.1114,0.1034,0.1034,0.1033,0.1028,0.1029,0,0.1028,0,0.0989,0.0977,0.0977,0,0,0,0.1122,0.1131,0.112,0.117,0.1113,0.1034,0.1073,0.103,0.1024,0.1023,0.1027,0.1024,0.0989,0.0977,0.0976,0.1002,0.1003,0,0,0.1127,0.1141,0.1124,0.1117,0.1108,0.1075,0.107,0.1026,0.1021,0.1027,0.1022,0.0988,0.0976,0.0976,0.1002,0.1003,0,0,0,0.1135,0.1145,0.1134,0.112,0.1094,0.1073,0.1067,0.1024,0.1023,0.1021,0.0987,0.0976,0.0975,0.1001,0.1002,0.1024,0,0,0,0.1138,0.1148,0.1136,0.1142,0.1095,0.1045,0.1066,0.1027,0.102,0.0987,0.0976,0.0975,0.1,0.1002,0.1022,0.1,0,0,0,0.1171,0.115,0.1149,0.1143,0.1103,0.1045,0.1041,0.1025,0.0999,0.0977,0.0975,0.1,0.1001,0.102,0.0999,0.1015,0,0,0,0.1178,0.1144,0.115,0.1105,0.1104,0.106,0.1041,0.0993,0.0973,0.0976,0.1,0.1002,0.102,0.0997,0.1014,0.0804,0.0792,0,0,0.113,0.1139,0.1111,0.1114,0.1066,0.107,0.1045,0.1006,0.1005,0.1018,0.1018,0.1023,0.0998,0.1015,0.0891,0.0876,0,0,0,0.1092,0.1078,0.1064,0.1041,0.1027,0.103,0.1007,0.1023,0.1039,0.0998,0.1048,0.1031,0.1041,0.0912,0.0902,0.0455,0.1009,0.1009,0.1009,0.1021,0.1025,0.099,0.1,0.0994,0.1004,0.102,0.105,0.105,0.108,0.1069,0.1119,0.0984,0.0974,0.0517,0.1108,0.1109,0.1109,0.1109,0.0945,0.0918,0.0957,0.0925,0.0965,0.0966,0.1034,0.1058,0.1116,0.1117,0.1127,0.0966,0.0962,0.048,0.1111,0.111,0.111,0.111,0.111,0.0887,0.0877,0.0879,0.0871,0.0889,0.0936,0.0966,0.1046,0.1111,0.1134,0.0998,0.0994,0.055,0.1151,0.1151,0.1151,0.1151,0.1151,0.1151,0.0815,0.0823,0.0801,0.0809,0.0806,0.0835,0.0928,0.0967,0.0985,0.0985,0.0983,0.0488,0.1131,0.1106,0.1151,0.1151,0.1151,0.1151,0.1151,0.0721,0.074,0.07,0.0691,0.0686,0.0608,0.0737,0.0714,0.0796,0.0753,0.0241,0.0906,0.087,0.0875,0.0845,0.0819,0.0819,0.0819,0.0819,0.066,0.0668,0.0609,0.0575,0.0545,0.0504,0.0269,0.0172,0.0001,-0.0212,-0.0146,-0.0276,-0.0243,-0.035,-0.0317,-0.0374,-0.0708,-0.071,-0.0713,0.0606,0.0598,0.0538,0.0512,0.0469,0.0327,-0.0077,-0.0639,-0.0889,-0.0814,-0.0731,-0.0667,-0.0888,-0.08,-0.0984,-0.0902,-0.0997,0,0]},{"header":{"parameterUnit":"m.s-1","parameterCategory":2,"la1":30.2992,"la2":30.254,"lo1":-89.0895,"lo2":-89.0443,"dy":0.0025,"dx":0.0025,"nx":19,"ny":19,"refTime":"2026-04-07T09:00:00:Z","depth":"0","parameterNumber":3,"parameterNumberName":"V-component_of_CURRENTS"},"data":[0,0,0,-0.0376,-0.0377,-0.0435,-0.0435,-0.048,-0.048,0,0,0,0,0,0,0,0,0,0,0,-0.0337,-0.0337,-0.0375,-0.0377,-0.0435,-0.0435,-0.048,-0.048,0,0,0,0,0,0,0,0,0,0,0,-0.0337,-0.0337,-0.0337,-0.0377,-0.0435,-0.0435,-0.048,-0.0443,0,0,0,0,0,0,0,0,0,0,-0.039,-0.0374,-0.0337,-0.0337,-0.0377,-0.0435,-0.0435,-0.0442,-0.0445,-0.0445,0,-0.0441,0,-0.0469,-0.0482,-0.0482,0,0,0,-0.0377,-0.0371,-0.0374,-0.0337,-0.0378,-0.0435,-0.0409,-0.0444,-0.0448,-0.045,-0.0442,-0.0444,-0.047,-0.0483,-0.0483,-0.0459,-0.0459,0,0,-0.0373,-0.0363,-0.0371,-0.0376,-0.0376,-0.0407,-0.041,-0.0447,-0.045,-0.0442,-0.0446,-0.0471,-0.0483,-0.0483,-0.046,-0.0459,0,0,0,-0.0364,-0.036,-0.0364,-0.0374,-0.0391,-0.0408,-0.0413,-0.0448,-0.0446,-0.0447,-0.0471,-0.0483,-0.0483,-0.046,-0.0459,-0.0395,0,0,0,-0.0362,-0.0355,-0.0362,-0.0359,-0.039,-0.043,-0.0413,-0.0442,-0.0448,-0.0471,-0.0483,-0.0484,-0.0461,-0.046,-0.0398,-0.0351,0,0,0,-0.0337,-0.0354,-0.0352,-0.0358,-0.0384,-0.043,-0.043,-0.0445,-0.0463,-0.0483,-0.0484,-0.0461,-0.046,-0.0401,-0.0357,-0.0302,0,0,0,-0.0336,-0.0351,-0.0351,-0.0374,-0.0383,-0.0405,-0.043,-0.0461,-0.0477,-0.0483,-0.0461,-0.046,-0.0401,-0.036,-0.0305,-0.024,-0.0219,0,0,-0.036,-0.0353,-0.0367,-0.0369,-0.0371,-0.0399,-0.0392,-0.0427,-0.0453,-0.0448,-0.0448,-0.0397,-0.0357,-0.0303,-0.0169,-0.015,0,0,0,-0.0379,-0.0373,-0.0379,-0.0377,-0.039,-0.0352,-0.0398,-0.0399,-0.0393,-0.0457,-0.039,-0.0366,-0.0334,-0.0302,-0.0287,-0.0277,-0.0454,-0.0454,-0.0454,-0.0391,-0.0382,-0.0369,-0.0341,-0.0339,-0.0329,-0.0305,-0.0303,-0.0357,-0.0334,-0.0309,-0.0215,-0.018,-0.0168,-0.0159,-0.0314,-0.0314,-0.0314,-0.0313,-0.0378,-0.0346,-0.0319,-0.03,-0.0246,-0.0229,-0.0197,-0.021,-0.0173,-0.0232,-0.0204,-0.023,-0.0147,-0.0143,-0.0309,-0.031,-0.031,-0.0311,-0.0311,-0.0343,-0.0317,-0.0304,-0.0243,-0.0181,-0.0156,-0.0073,-0.0076,-0.0098,-0.0067,-0.0047,-0.0048,-0.0048,-0.0066,-0.0065,-0.0065,-0.0065,-0.0064,-0.0064,-0.0297,-0.0276,-0.0238,-0.0184,-0.0144,-0.0075,-0.0002,0.0045,0.0077,0.0049,0.0049,-0.0001,-0.0139,-0.0153,-0.0057,-0.0058,-0.0059,-0.006,-0.006,-0.0231,-0.0238,-0.0188,-0.015,-0.0061,-0.0015,0.008,0.0196,0.0247,0.0277,0.0205,0.0112,0.0103,0.009,0.0082,0.0233,0.0233,0.0233,0.0233,-0.0194,-0.0191,-0.015,-0.01,-0.0018,0.0018,0.0086,0.019,0.0311,0.0339,0.033,0.0282,0.0269,0.0265,0.0248,0.0241,0.0429,0.0429,0.0429,-0.0148,-0.0153,-0.0127,-0.01,-0.0015,0.0025,-0.0012,0.0003,0.0273,0.0434,0.0336,0.0328,0.0247,0.0226,0.0204,0.018,0.0162,0,0]}],[{"header":{"parameterUnit":"m.s-1","parameterCategory":2,"la1":30.2992,"la2":30.254,"lo1":-89.0895,"lo2":-89.0443,"dy":0.0025,"dx":0.0025,"nx":19,"ny":19,"refTime":"2026-04-07T09:00:00:Z","depth":"2","parameterNumber":2,"parameterNumberName":"U-component_of_CURRENTS"},"data":[0,0,0,0.1164,0.1162,0.1077,0.1077,0.1026,0.1025,0,0,0,0,0,0,0,0,0,0,0,0.122,0.122,0.1164,0.1161,0.1077,0.1077,0.1026,0.1025,0,0,0,0,0,0,0,0,0,0,0,0.122,0.122,0.1219,0.1161,0.1078,0.1077,0.1026,0.1077,0,0,0,0,0,0,0,0,0,0,0.1153,0.1176,0.122,0.1219,0.116,0.1078,0.1077,0.1079,0.1074,0.1077,0,0.1076,0,0.1035,0.1022,0.1022,0,0,0,0.117,0.118,0.1169,0.1219,0.116,0.1078,0.1118,0.1076,0.107,0.107,0.1075,0.1071,0.1034,0.1022,0.1022,0.1049,0.105,0,0,0.1175,0.119,0.1173,0.1166,0.1154,0.112,0.1115,0.1072,0.1067,0.1074,0.1069,0.1033,0.1022,0.1021,0.1049,0.1049,0,0,0,0.1182,0.1193,0.1182,0.117,0.1141,0.1118,0.1112,0.107,0.107,0.1068,0.1032,0.1021,0.1021,0.1048,0.1049,0.107,0,0,0,0.1185,0.1196,0.1185,0.119,0.1142,0.109,0.111,0.1074,0.1066,0.1033,0.1021,0.102,0.1047,0.1048,0.1068,0.1047,0,0,0,0.1221,0.1198,0.1198,0.1192,0.1149,0.109,0.1086,0.1071,0.1044,0.1022,0.102,0.1047,0.1048,0.1066,0.1045,0.1061,0,0,0,0.1227,0.1192,0.1198,0.1151,0.115,0.1105,0.1086,0.1038,0.1018,0.1021,0.1047,0.1049,0.1066,0.1044,0.106,0.0887,0.0878,0,0,0.1178,0.1187,0.1159,0.1161,0.1112,0.1116,0.109,0.1051,0.1051,0.1065,0.1065,0.1069,0.1045,0.1061,0.0974,0.0962,0,0,0,0.1138,0.1124,0.111,0.1086,0.1072,0.1076,0.1052,0.1068,0.1085,0.1044,0.1094,0.1078,0.1087,0.0981,0.0973,0.1056,0.1056,0.1056,0.1055,0.1064,0.107,0.1035,0.1045,0.1039,0.1049,0.1065,0.1096,0.1097,0.1126,0.1115,0.1165,0.1054,0.1045,0.1154,0.1154,0.1155,0.1155,0.1155,0.0987,0.0961,0.1001,0.0968,0.101,0.1011,0.108,0.1104,0.1162,0.1163,0.1173,0.1033,0.1037,0.1157,0.1156,0.1156,0.1156,0.1156,0.1156,0.0928,0.0919,0.0921,0.0914,0.0932,0.098,0.1012,0.1091,0.1156,0.1179,0.1068,0.1065,0.1149,0.1196,0.1196,0.1196,0.1196,0.1196,0.1196,0.0856,0.0864,0.0843,0.0852,0.0849,0.0879,0.0973,0.1012,0.1046,0.1058,0.1056,0.1178,0.1177,0.1152,0.1196,0.1196,0.1196,0.1196,0.1196,0.0762,0.0781,0.0741,0.0733,0.0729,0.0716,0.0797,0.0788,0.0862,0.0831,0.099,0.0995,0.0963,0.0967,0.0938,0.0925,0.0925,0.0924,0.0924,0.0702,0.0709,0.0651,0.0618,0.059,0.0633,0.0524,0.0585,0.0714,0.0807,0.0813,0.0774,0.0785,0.0744,0.0753,0.072,0.065,0.065,0.065,0.0648,0.064,0.0581,0.0555,0.0514,0.052,0.039,0.0259,0.0398,0.065,0.088,0.0884,0.0839,0.0853,0.0798,0.081,0.076,0,0]},{"header":{"parameterUnit":"m.s-1","parameterCategory":2,"la1":30.2992,"la2":30.254,"lo1":-89.0895,"lo2":-89.0443,"dy":0.0025,"dx":0.0025,"nx":19,"ny":19,"refTime":"2026-04-07T09:00:00:Z","depth":"2","parameterNumber":3,"parameterNumberName":"V-component_of_CURRENTS"},"data":[0,0,0,-0.0362,-0.0363,-0.0425,-0.0425,-0.0469,-0.0469,0,0,0,0,0,0,0,0,0,0,0,-0.032,-0.032,-0.0362,-0.0363,-0.0425,-0.0425,-0.0469,-0.0469,0,0,0,0,0,0,0,0,0,0,0,-0.032,-0.032,-0.032,-0.0363,-0.0425,-0.0425,-0.0469,-0.0431,0,0,0,0,0,0,0,0,0,0,-0.0375,-0.0358,-0.032,-0.032,-0.0364,-0.0425,-0.0425,-0.0429,-0.0433,-0.0432,0,-0.0428,0,-0.0459,-0.0472,-0.0472,0,0,0,-0.0362,-0.0355,-0.0359,-0.032,-0.0364,-0.0425,-0.0397,-0.0432,-0.0436,-0.0436,-0.0429,-0.0432,-0.0459,-0.0472,-0.0472,-0.0448,-0.0448,0,0,-0.0358,-0.0347,-0.0356,-0.0361,-0.0363,-0.0395,-0.0399,-0.0435,-0.0438,-0.0429,-0.0433,-0.046,-0.0472,-0.0472,-0.0449,-0.0448,0,0,0,-0.0349,-0.0345,-0.0349,-0.0358,-0.0378,-0.0397,-0.0401,-0.0437,-0.0434,-0.0434,-0.0461,-0.0472,-0.0473,-0.0449,-0.0448,-0.0384,0,0,0,-0.0347,-0.034,-0.0347,-0.0344,-0.0377,-0.0418,-0.0402,-0.0431,-0.0437,-0.046,-0.0472,-0.0473,-0.045,-0.0449,-0.0387,-0.0341,0,0,0,-0.032,-0.0338,-0.0336,-0.0342,-0.0371,-0.0418,-0.0419,-0.0433,-0.0453,-0.0472,-0.0473,-0.045,-0.0449,-0.039,-0.0346,-0.0291,0,0,0,-0.0319,-0.0335,-0.0336,-0.0361,-0.037,-0.0394,-0.0419,-0.0451,-0.0466,-0.0473,-0.045,-0.0448,-0.0391,-0.0349,-0.0295,-0.0229,-0.0208,0,0,-0.0344,-0.0338,-0.0353,-0.0356,-0.0359,-0.0386,-0.0381,-0.0416,-0.0442,-0.0437,-0.0437,-0.0386,-0.0346,-0.0292,-0.0158,-0.0139,0,0,0,-0.0365,-0.036,-0.0366,-0.0365,-0.0379,-0.0341,-0.0387,-0.0388,-0.0382,-0.0446,-0.0379,-0.0355,-0.0323,-0.0291,-0.0276,-0.0443,-0.0443,-0.0443,-0.0443,-0.0379,-0.037,-0.0358,-0.033,-0.0329,-0.0319,-0.0295,-0.0293,-0.0347,-0.0324,-0.0299,-0.0205,-0.017,-0.0157,-0.0304,-0.0303,-0.0303,-0.0303,-0.0303,-0.0368,-0.0337,-0.0309,-0.029,-0.0235,-0.022,-0.0187,-0.02,-0.0163,-0.0221,-0.0194,-0.0219,-0.0136,-0.0298,-0.0299,-0.0299,-0.03,-0.03,-0.0301,-0.0334,-0.0308,-0.0295,-0.0234,-0.0171,-0.0146,-0.0063,-0.0067,-0.0088,-0.0057,-0.0037,-0.0038,-0.0157,-0.0056,-0.0056,-0.0055,-0.0055,-0.0054,-0.0054,-0.0289,-0.0267,-0.0229,-0.0175,-0.0136,-0.0067,0.0007,0.0054,0.0087,0.0059,0.0059,-0.0121,-0.0129,-0.0142,-0.0047,-0.0048,-0.0049,-0.005,-0.005,-0.0223,-0.0229,-0.018,-0.0142,-0.0053,-0.0,0.009,0.0205,0.0256,0.0286,0.0129,0.0123,0.0113,0.01,0.0093,0.0243,0.0243,0.0243,0.0243,-0.0186,-0.0183,-0.0142,-0.0093,-0.001,0.0034,0.0112,0.0207,0.0285,0.0286,0.0284,0.0228,0.0217,0.0208,0.0192,0.0184,0.0358,0.0358,0.0358,-0.0141,-0.0146,-0.012,-0.0093,-0.0007,0.0047,0.0033,0.0006,0.0153,0.0357,0.024,0.0263,0.0173,0.0158,0.0131,0.0112,0.0093,0,0]}],[{"header":{"parameterUnit":"m.s-1","parameterCategory":2,"la1":30.2992,"la2":30.254,"lo1":-89.0895,"lo2":-89.0443,"dy":0.0025,"dx":0.0025,"nx":19,"ny":19,"refTime":"2026-04-07T09:00:00:Z","depth":"4","parameterNumber":2,"parameterNumberName":"U-component_of_CURRENTS"},"data":[0,0,0,0.1016,0.1019,0.113,0.113,0.1229,0.1229,0,0,0,0,0,0,0,0,0,0,0,0.0973,0.0973,0.1016,0.1019,0.1129,0.113,0.1229,0.1229,0,0,0,0,0,0,0,0,0,0,0,0.0972,0.0973,0.0974,0.1019,0.1129,0.113,0.1228,0.1155,0,0,0,0,0,0,0,0,0,0,0.1052,0.1031,0.0973,0.0974,0.102,0.1129,0.113,0.1151,0.1159,0.1167,0,0.1188,0,0.1215,0.1235,0.1236,0,0,0,0.1015,0.1024,0.1045,0.0974,0.1021,0.1129,0.1078,0.1156,0.1165,0.1177,0.1189,0.1194,0.1217,0.1236,0.1236,0.1318,0.1318,0,0,0.1009,0.1002,0.1039,0.105,0.1054,0.1075,0.1082,0.1162,0.1177,0.119,0.1197,0.1218,0.1237,0.1237,0.1317,0.1318,0,0,0,0.0994,0.0997,0.1017,0.1046,0.1072,0.1078,0.1086,0.1173,0.1178,0.1198,0.1219,0.1237,0.1238,0.1317,0.1318,0.1331,0,0,0,0.099,0.0989,0.1014,0.1012,0.1071,0.1134,0.1096,0.1172,0.1182,0.1219,0.1237,0.1239,0.1317,0.1317,0.133,0.1326,0,0,0,0.0967,0.0987,0.0998,0.1011,0.1061,0.1133,0.1142,0.1175,0.1195,0.1236,0.1239,0.1317,0.1317,0.1329,0.1325,0.1332,0,0,0,0.0956,0.0985,0.0999,0.1038,0.106,0.112,0.1142,0.1203,0.124,0.1238,0.1317,0.1317,0.1329,0.1324,0.1332,0.1151,0,0,0,0.0983,0.0989,0.1009,0.1023,0.1073,0.1104,0.1164,0.1225,0.1247,0.1286,0.1289,0.133,0.1325,0.1332,0.1183,0,0,0,0,0.101,0.1023,0.1041,0.1077,0.1116,0.1158,0.1217,0.1243,0.1299,0.1273,0.1337,0.1333,0.1337,0.123,0.132,0.132,0.132,0.132,0.132,0.1034,0.1047,0.1079,0.1103,0.1141,0.1205,0.1241,0.1285,0.1311,0.1338,0.1349,0.137,0.1258,0.1361,0.1361,0.1361,0.1361,0.1361,0.1361,0.1055,0.1061,0.1091,0.1127,0.1164,0.1216,0.1276,0.1306,0.1358,0.1367,0.1371,0.1258,0.1363,0.1362,0.1362,0.1362,0.1362,0.1362,0.1362,0.1045,0.1047,0.1081,0.1122,0.117,0.1224,0.1251,0.1314,0.1363,0.138,0.127,0.1377,0.1369,0.1391,0.1391,0.1391,0.1391,0.1391,0.1391,0.1014,0.1042,0.1066,0.1113,0.1136,0.1173,0.1245,0.1264,0.1328,0.1258,0.1388,0.138,0.1379,0.1371,0.1391,0.1391,0.1391,0.1391,0.1391,0.0983,0.1007,0.1027,0.1051,0.1081,0.1084,0.1165,0.115,0.1162,0.1137,0.119,0.12,0.1175,0.118,0.1164,0.1123,0.1121,0.1118,0,0.0957,0.0971,0.099,0.0997,0.0982,0.1022,0.0959,0.099,0.1047,0.1011,0.1197,0.126,0.1265,0.1242,0.1242,0.1224,0,0,0,0.0936,0.0946,0.0943,0.0958,0.0929,0.089,0.0933,0.0902,0.1027,0.0976,0.1061,0.1076,0.1273,0.1392,0.1379,0.1378,0.1364,0,0]},{"header":{"parameterUnit":"m.s-1","parameterCategory":2,"la1":30.2992,"la2":30.254,"lo1":-89.0895,"lo2":-89.0443,"dy":0.0025,"dx":0.0025,"nx":19,"ny":19,"refTime":"2026-04-07T09:00:00:Z","depth":"4","parameterNumber":3,"parameterNumberName":"V-component_of_CURRENTS"},"data":[0,0,0,0.0177,0.0177,0.0189,0.0189,0.0243,0.0244,0,0,0,0,0,0,0,0,0,0,0,0.0175,0.0175,0.0177,0.0177,0.0189,0.0189,0.0243,0.0244,0,0,0,0,0,0,0,0,0,0,0,0.0175,0.0175,0.0175,0.0177,0.0189,0.0189,0.0243,0.0225,0,0,0,0,0,0,0,0,0,0,0.0209,0.0197,0.0175,0.0175,0.0177,0.0189,0.0189,0.0224,0.0226,0.0247,0,0.0248,0,0.0245,0.0248,0.0248,0,0,0,0.0181,0.0195,0.0201,0.0175,0.0177,0.0189,0.0184,0.0225,0.0228,0.0251,0.0248,0.025,0.0246,0.0248,0.0249,0.0289,0.0289,0,0,0.018,0.0177,0.0199,0.0202,0.0179,0.0184,0.0185,0.0226,0.0229,0.0249,0.0251,0.0247,0.0249,0.0249,0.0289,0.0289,0,0,0,0.0175,0.0177,0.018,0.02,0.0198,0.0184,0.0185,0.0227,0.0228,0.0252,0.0248,0.0249,0.025,0.0289,0.0289,0.029,0,0,0,0.0175,0.0174,0.018,0.0178,0.0197,0.0206,0.0185,0.0225,0.023,0.0247,0.0249,0.025,0.0289,0.0289,0.029,0.0292,0,0,0,0.0174,0.0173,0.0175,0.0178,0.0181,0.0206,0.0209,0.0226,0.0228,0.0248,0.0251,0.0289,0.0289,0.029,0.0292,0.0301,0,0,0,0.0171,0.0185,0.0175,0.0191,0.0181,0.0209,0.0209,0.0233,0.0252,0.0249,0.0289,0.0289,0.029,0.0292,0.0301,0.0286,0,0,0,0.019,0.0187,0.0198,0.019,0.0214,0.0208,0.023,0.0251,0.0256,0.0279,0.028,0.029,0.0292,0.0301,0.0283,0,0,0,0,0.0206,0.0206,0.0217,0.0222,0.024,0.0242,0.0255,0.0259,0.027,0.0265,0.0289,0.029,0.0296,0.0286,0.0289,0.0289,0.0289,0.0289,0.0289,0.0221,0.0224,0.0235,0.0238,0.0255,0.0268,0.0273,0.0274,0.0286,0.0283,0.029,0.0296,0.0285,0.0288,0.0288,0.0288,0.0288,0.0288,0.0288,0.0223,0.0215,0.0226,0.0234,0.0245,0.026,0.0279,0.0281,0.0292,0.0289,0.0294,0.0286,0.0288,0.0288,0.0288,0.0288,0.0288,0.0288,0.0288,0.0206,0.0198,0.0206,0.0208,0.0226,0.0248,0.0275,0.0288,0.0291,0.0297,0.0295,0.0299,0.0301,0.0304,0.0304,0.0304,0.0304,0.0304,0.0304,0.0172,0.0179,0.0174,0.0184,0.0196,0.0225,0.0275,0.0297,0.0311,0.0296,0.0302,0.0301,0.0301,0.0302,0.0305,0.0305,0.0305,0.0305,0.0305,0.013,0.0142,0.0131,0.0139,0.0168,0.0197,0.0257,0.0307,0.0322,0.0319,0.0296,0.0296,0.0297,0.0297,0.0298,0.0299,0.0299,0.0299,0,0.0104,0.0107,0.0096,0.0105,0.0129,0.018,0.0228,0.0272,0.0283,0.026,0.0298,0.0269,0.027,0.0267,0.0267,0.0266,0,0,0,0.0077,0.0078,0.0063,0.0077,0.0109,0.0177,0.024,0.025,0.0274,0.0314,0.0295,0.0296,0.0331,0.0307,0.0308,0.0308,0.031,0,0]}]]